Location: St. Louis
(38.6270°N, 90.1994°W)
Time: 05:02:36
(UTC-06:00)

Courier 1B - Pass Details

Date: 05 December 2021
Orbit: 962 x 1209 km, 28.3° (Epoch: 19 January)

Event Time Altitude Azimuth Distance (km) Brightness Sun altitude
Rises 17:35:57 0° 252° (WSW) 4,037 13.0 -10.9°
Reaches altitude 10° 17:39:03 10° 244° (WSW) 3,044 11.6 -11.5°
Maximum altitude 17:45:47 37° 180° (S) 1,651 8.9 -12.7°
Drops below altitude 10° 17:52:10 10° 116° (ESE) 2,878 9.5 -13.9°
Enters shadow 17:52:42 - 114° (ESE) 3,043 9.6 -14.0°
